User: anonymous   Login
Location: Pine Mountain Observatory
(43.7910°N, 120.9377°W)
Time: 23:19:34
(UTC-08:00)
Language:

Meteor 2-19 Rocket - Orbit

View from above orbital plane
View from above orbital plane
View from above satellite
View from above satellite

Ground track
Ground track

The orbit data is extracted from the following two-line orbital elements,

1 20671U 90057B   14332.68904200  .00000050  00000-0  30747-4 0  1496
2 20671 082.5484 032.5361 0016101 057.4621 054.3744 13.84580835234161
Epoch (UTC): 28 November 2014 16:32:13
Eccentricity: 0.0016101
inclination: 82.5484°
perigee height: 936 km
apogee height: 959 km
right ascension of ascending node: 32.5361°
argument of perigee: 57.4621°
revolutions per day: 13.84580835
mean anomaly at epoch: 54.3744°
orbit number at epoch: 23416

The dashed part of the orbit path shows where the satellite is in the earth's shadow,  

DLR